Regional Weather Roundup
Issued by NWS Wakefield, VA

Home | Current Version | Previous Version | Text Only | Print | Product List | Glossary Off
Versions: 1 2 3 4 5 6 7 8 9 10 11 12 13 14 15 16 17 18 19 20 21 22 23 24 25 26 27 28 29 30 31 32 33 34 35 36 37 38 39 40 41 42 43 44 45 46 47 48 49 50
000 ASUS41 KAKQ 120115 RWRAKQ REGIONAL WEATHER ROUNDUP NATIONAL WEATHER SERVICE WAKEFIELD VA 800 PM EST THU FEB 11 2016 Note: "fair" indicates few or no clouds below 12,000 feet with no significant weather and/or obstructions to visibility. * = Denotes station may not report precipitation (e.g., rain,snow,etc.), thunder or fog. VAZ042-051-052>054-056-120200- NORTHERN VIRGINIA CITY SKY/WX TMP DP RH WIND PRES REMARKS WASH NATIONAL FAIR 24 0 35 NW10G20 30.30R WCI 14 DULLES FAIR 21 0 39 NW10 30.29R WCI 10 FORT BELVOIR FAIR 23 -1 35 NW14G20 30.29R WCI 11 QUANTICO FAIR 26 1 34 N8 30.32R FREDERICKSBRG* FAIR 25 4 40 N8 30.29R STAFFORD* FAIR 22 0 38 N8 30.33R WARRENTON FAIR 22 7 52 NW5 30.28R CULPEPER* FAIR 23 -1 35 NW5 30.30R MANASSAS* CLEAR 21 5 49 NW12 30.29R WCI 9 LEESBURG* FAIR 23 7 50 NW12G17 30.28R WCI 12 WINCHESTER FAIR 21 5 49 NW10 30.25S WCI 10 FRONT ROYAL* FAIR 21 1 42 W5 30.25R LURAY* FAIR 21 0 39 SW5 30.26R $$ VAZ048-049-060>072-079>083-120200- CENTRAL AND SOUTH CENTRAL VIRGINIA CITY SKY/WX TMP DP RH WIND PRES REMARKS RICHMOND FAIR 28 1 31 NW8 30.26R CHESTERFIELD* FAIR 27 -2 28 N10 30.28R WCI 17 PETERSBURG* FAIR 29 -4 23 NW3 30.27R HANOVER FAIR 27 0 31 N5 30.28R TAPPAHANNOCK* FAIR 28 1 31 NW6 30.28R QUINTON* FAIR 28 1 32 NW3 30.26R CHARLOTTSVILLE FAIR 24 -1 33 N5 30.26R GORDONSVILLE* FAIR 24 1 36 NW5 30.27R ORANGE* FAIR 25 1 36 CALM 30.29R LOUISA* FAIR 25 1 36 N3 30.26R BUMPASS* FAIR 26 1 33 N3 30.26R FARMVILLE* FAIR 29 -1 28 CALM 30.26R CREWE* FAIR 27 3 35 NW6 30.25R FORT PICKETT* NOT AVBL CHASE CITY* FAIR 28 2 32 NW3 30.25R CLARKSVILLE* FAIR 30 7 37 CALM 30.26R SOUTH HILL* FAIR 27 5 38 CALM 30.31R LAWRENCEVILLE* FAIR 28 4 36 CALM 30.25R EMPORIA* FAIR 27 5 39 CALM 30.28R $$ VAZ088>098-120200- SOUTHEAST VIRGINIA CITY SKY/WX TMP DP RH WIND PRES REMARKS NORFOLK FAIR 32 7 35 CALM 30.25R VIRGINIA BEACH FAIR 33 9 36 W5 30.25R NORFOLK NAVAL FAIR 31 9 39 NW8 30.27R WEST POINT* FAIR 29 0 29 CALM 30.28R SALUDA* FAIR 29 7 39 N10 30.26R WCI 19 NEWPORT NEWS FAIR 30 5 34 NW3 30.26R LANGLEY AFB FAIR 29 4 34 W2 30.25R FORT EUSTIS FAIR 31 6 34 NW10 30.24R WCI 23 WILLIAMSBURG* FAIR 28 12 50 CALM 30.27R HR EXEC AP* FAIR 21 12 68 CALM 30.28R FRANKLIN* FAIR 29 4 34 CALM 30.27R US460-WAKEFLD FAIR 27 6 41 CALM 30.26R $$ VAZ020-022-025-037-045-120200- WEST CENTRAL AND SOUTHWEST VIRGINIA CITY SKY/WX TMP DP RH WIND PRES REMARKS STAUNTON* FAIR 23 2 41 NW12 30.25R WCI 12 WAYNESBORO* FAIR 19 -2 41 N3 30.21R HOT SPRINGS VA FAIR 10 1 68 W14G21 30.00S WCI -7 LYNCHBURG FAIR 25 0 33 NW6 30.25R DANVILLE FAIR 28 4 35 CALM 30.26R SOUTH BOSTON* FAIR 28 1 31 CALM 30.27R MARTINSVILLE FAIR 28 1 31 N7 30.25R ROANOKE FAIR 24 4 42 NW16 30.25R WCI 11 BLACKSBURG FAIR 23 6 48 W3 30.20S DUBLIN* FAIR 24 7 48 NW7 30.19R MARION* FAIR 24 4 41 W8G16 30.17R HILLSVILLE* FAIR 23 4 43 NW8 30.13R RICHLANDS* FAIR 21 4 46 CALM 30.16R WISE* FAIR 21 3 45 CALM 30.17S ABINGDON* FAIR 28 8 44 N5 30.18S $$ MDZ021>025-VAZ099-100-120200- SOUTHERN MARYLAND AND THE DELMARVA PENINSULA CITY SKY/WX TMP DP RH WIND PRES REMARKS PATUXENT RIVER PTCLDY 26 4 38 NW18 30.26R WCI 13 BAY BRIDGE APT N/A 27 3 36 W16G24 30.28R WCI 14 LEONARDTOWN CLEAR 27 1 33 NW7 30.28R DOVER CLEAR 23 4 43 W17G23 30.22R WCI 9 GEORGETOWN PTCLDY 24 1 36 W12 30.26R WCI 13 EASTON CLEAR 25 3 39 NW13G23 30.29R WCI 13 CAMBRIDGE CLEAR 25 3 39 NW12G18 30.26R WCI 14 SALISBURY PTCLDY 24 4 42 NW9 30.25R OCEAN CITY CLEAR 25 3 38 NW12G22 30.25R WCI 14 WALLOPS ISLAND FAIR 26 3 37 NW8G20 30.26R ACCOMACK* FAIR 28 9 43 NW10G16 30.25R WCI 19 $$ NCZ012>017-030>032-120200- NORTH CENTRAL AND EASTERN NORTH CAROLINA CITY SKY/WX TMP DP RH WIND PRES REMARKS ROANOKE RAPIDS FAIR 28 10 47 CALM 30.26R RALEIGH CLEAR 30 11 45 CALM 30.24R ELIZABETH CITY PTCLDY 30 10 43 W3 30.26R AHOSKIE* CLEAR 25 10 53 CALM 30.27R EDENTON* PTCLDY 33 12 42 CALM 30.27R CURRITUCK* PTCLDY 29 17 61 CALM 30.27R KILL DEVIL HLS PTCLDY 33 11 40 CALM 30.25R MANTEO PTCLDY 34 11 38 NW7 30.26R CAPE HATTERAS CLEAR 37 15 40 NW8 30.27R TARBORO* FAIR 28 22 78 CALM 30.27R GOLDSBORO CLEAR 32 10 40 N3 30.24R WASHINGTON CLEAR 31 12 46 CALM 30.27R GREENVILLE CLEAR 30 18 59 CALM 30.27R NEW BERN CLEAR 30 17 58 CALM 30.28R WILMINGTON CLEAR 35 23 61 CALM 30.26R $$ VAZ048-120200- ELSEWHERE CITY SKY/WX TMP DP RH WIND PRES REMARKS HARRISBURG PA PTCLDY 21 6 52 W17 30.21R WCI 7 BALTIMORE PTCLDY 22 0 38 W13 30.27R WCI 10 ANNAPOLIS CLEAR 24 4 42 NW14G21 30.27R WCI 12 ANDREWS AFB FAIR 23 -1 35 NW16G28 30.26R WCI 10 PHILADELPHIA PTCLDY 23 -1 35 W15 30.20R WCI 10 HENDERSON NC CLEAR 28 9 45 CALM 30.25R GREENSBORO CLEAR 32 7 35 NE5 30.22R ROCKY MOUNT CLEAR 27 16 63 CALM 30.26R $$ VAZ100-120200- MARINE STATION/POSITION TIME TEMP WIND PRES WAVE SWELL AIR SEA DIR/SP/G HT/PER HT/PER (UTC) (F) (DEG/KT/KT) (MB) (FT/S) (FT/S) BRANDYWINE LGT 0000 25 310/ 24/ 33 1022.5R CAPE MAY NJ 0000 25 37 300/ 26/ 32 1022.2R LEWES DE 0000 26 38 310/ 22/ 27 1023.0R 15NM E FENWICK I 0050 28 43 1023.2R 6/ 6 OCEAN-CITY-INLET 0000 27 37 330/ 14/ 19 1022.6R WACHAPREAGUE VA 0000 28 39 CALM / 2 1023.4R THOMAS POINT MD 0100 24 37 310/ 16/ 19 1025.7R GOOSES REEF MD 0000 28 38 320/ 19/ 25 1024.8R 2/ 3 COVE POINT MD 0000 26 340/ 20/ 26 1024.4R SOLOMONS ISLAND 0000 27 40 330/ 11/ 19 N/A BISHOPS HEAD MD 0000 26 34 330/ 13/ 16 1022.9R PINEY POINT MD 0000 360/ 17/ 19 N/A POTOMAC MD 0000 29 39 340/ 17/ 21 1022.7R 1/ 2 CAMBRIDGE MD 0000 27 38 300/ 12/ 18 1023.4R LEWISETTA VA 0000 29 40 340/ 12/ 16 1023.8R RAPPAHANNOCK LGT 0000 300/ 17/ 20 1023.6R STINGRAY PT 0000 33 41 310/ 14/ 17 1023.4R 1/ 2 YORK RVR RNG VA 0000 33 340/ 10/ 11 1023.1R YORKTOWN VA 0000 33 41 290/ 6/ 8 1023.4R JAMESTOWN VA 0000 33 42 310/ 12/ 14 N/A DOMINION TERM VA 0000 34 300/ 14/ 16 1023.4R KIPTOPEKE VA 0000 40 310/ 17/ 19 N/A CHES BAY BRIDGE 0000 34 41 290/ 13/ 16 1023.2R CAPE HENRY VA 0000 33 300/ 13/ 16 N/A CHESAPEAKE LGHT 0000 33 290/ 18/ 20 1024.2R WILLOUBY STN VA 0000 33 310/ 11/ 12 1024.4R CAPE HENRY BUOY 0028 43 N/A 3/ 4 1ST LANDING BUOY 0000 41 N/A 2/ 3 CAPE CHARLES BUO 0026 42 N/A 2/ 3 2/11 OFFSHORE WE BUOY 0021 45 N/A 3/ 4 2/11 64NM E OF VA BCH 0050 35 48 310/ 19/ 25 1023.6R 5/ 6 2/ 9 DUCK PIER NC 0000 35 300/ 8/ 12 1023.3R 44100 DUCK FRF 0024 46 N/A 3/10 44056 DUCK FRF 0011 44 N/A 2/11 OREGON INLET NC 0000 34 41 280/ 6/ 11 1023.9R HATTERAS NC 0000 38 45 300/ 15/ 18 1023.5R DIAMOND SHLS NC 0050 41 69 300/ 17/ 27 1024.6R 4/ 8 2/ 8 $$

USA.gov is the U.S. government's official web portal to all federal, state and local government web resources and services.